Retour au catalogue

STARLINK-35383

ActifCommunicationsSSO
NORAD 65793·PAYLOAD·🇺🇸 United States

Lancé Sep 26, 2025 depuis Vandenberg Space Force Base

Loading…

Prochains Passages (prochaines 24 heures)

TLE

FraisSource: CelesTrak SupGP

Époque: Sep 15, 2026, 03:02 UTC

1 65793C 25218C   26258.12687500  .00007261  00000+0  22555-3 0  2585
2 65793  97.2849 115.5926 0001619  97.5949 169.5583 15.33414741    11

Suivez STARLINK-35383 en temps réel avec AllMySat

Download on the App Store